DW9007 Weather Reports


Display with metric or nautical units.
time (UTC)temp
F
wind
direction
speed
MPH
gust
MPH
rain 1hr
in
rain 24hr
in
rain mn
in
humidity
%
barometer
mb
20260903090027 75 115 0.0 0.0 0.00 0.00 0.00 93 1014.5
20260903084538 76 115 0.0 0.0 0.00 0.00 0.00 92 1014.6
20260903083006 76 115 0.0 0.0 0.00 0.00 0.00 92 1014.6
20260903081505 76 115 0.0 0.0 0.00 0.00 0.00 91 1014.4
20260903080050 76 115 0.0 0.0 0.00 0.00 0.00 91 1014.4
20260903074550 76 115 0.0 0.0 0.00 0.00 0.00 91 1014.4
20260903073027 76 115 0.0 0.0 0.00 0.00 0.00 91 1014.5
20260903071527 76 115 0.0 0.0 0.00 0.00 0.00 91 1014.5
20260903070007 77 115 0.0 0.0 0.00 0.00 0.00 90 1014.5
20260903064506 77 115 0.0 0.0 0.00 0.00 0.00 90 1014.6
20260903063104 77 115 0.0 0.0 0.00 0.00 0.00 89 1014.7
20260903061549 77 115 0.0 0.0 0.00 0.00 0.00 89 1014.7
20260903060038 77 115 0.0 0.0 0.00 0.00 0.00 89 1014.7
20260903054527 77 115 0.0 0.0 0.00 0.00 0.00 88 1014.7
20260903053017 78 115 0.0 0.0 0.00 0.00 0.00 88 1014.8
20260903051508 78 115 0.0 0.0 0.00 0.00 0.00 88 1014.7
20260903050100 78 115 0.0 0.0 0.00 0.00 0.00 87 1014.8
20260903044558 78 115 0.0 0.0 0.00 0.00 0.00 86 1014.7
20260903043034 78 115 0.0 0.0 0.00 0.00 0.00 85 1014.7
20260903041531 79 115 0.0 0.0 0.00 0.00 0.00 85 1014.7
20260903040015 79 115 0.0 0.0 0.00 0.00 0.00 83 1014.7
20260903034515 79 115 0.0 0.0 0.00 0.00 0.00 83 1014.8
20260903033012 80 115 0.0 0.0 0.00 0.00 0.00 82 1014.8
20260903031510 80 115 0.0 0.0 0.00 0.00 0.00 81 1015.0
20260903030009 81 115 0.0 0.0 0.00 0.00 0.00 80 1014.9
20260903024507 81 115 0.0 0.0 0.00 0.00 0.00 79 1014.9
20260903023006 81 115 0.0 0.0 0.00 0.00 0.00 79 1014.9
20260903021510 82 115 0.0 0.0 0.00 0.00 0.00 79 1014.8
20260903020046 82 115 0.0 0.0 0.00 0.00 0.00 77 1014.8
20260903014547 83 115 0.0 0.0 0.00 0.00 0.00 76 1014.6
20260903013026 83 115 0.0 0.0 0.00 0.00 0.00 74 1014.3
20260903011521 84 115 0.0 0.0 0.00 0.00 0.00 72 1014.3
20260903010003 85 115 0.0 0.0 0.00 0.00 0.00 71 1014.0
20260903004558 85 115 0.0 0.0 0.00 0.00 0.00 69 1014.0
20260903003036 87 115 0.0 0.0 0.00 0.00 0.00 67 1013.9
20260903001534 88 115 0.0 0.0 0.00 0.00 0.00 65 1014.0
20260903000012 89 115 0.0 0.0 0.00 0.00 0.00 63 1013.9
20260902234508 90 115 0.0 0.0 0.00 0.00 0.00 62 1013.9
20260902233106 91 115 0.0 0.0 0.00 0.00 0.00 60 1013.8
20260902231546 92 115 0.0 0.0 0.00 0.00 0.00 58 1013.7
20260902230046 93 115 0.0 2.0 0.00 0.00 0.00 56 1013.7
20260902224528 94 109 0.0 4.0 0.00 0.00 0.00 55 1013.8
20260902223027 94 129 0.0 3.0 0.00 0.00 0.00 55 1013.8
20260902221507 94 128 0.0 5.0 0.00 0.00 0.00 53 1014.0
20260902220009 94 73 0.0 5.0 0.00 0.00 0.00 53 1014.0
20260902214553 94 27 0.0 4.0 0.00 0.00 0.00 53 1014.1
20260902213048 94 138 0.0 5.0 0.00 0.00 0.00 53 1014.0
20260902211529 95 82 2.0 11.0 0.00 0.00 0.00 53 1014.1
20260902210049 95 92 1.0 6.0 0.00 0.00 0.00 52 1014.1
20260902204512 95 91 0.0 3.0 0.00 0.00 0.00 53 1014.3
20260902203006 95 106 1.0 7.0 0.00 0.00 0.00 54 1014.4
20260902201559 94 111 3.0 7.0 0.00 0.00 0.00 53 1014.6
20260902200043 94 115 1.0 5.0 0.00 0.00 0.00 55 1014.8
20260902194522 93 90 1.0 4.0 0.00 0.00 0.00 55 1015.1
20260902193020 92 111 0.0 1.0 0.00 0.00 0.00 61 1015.4
20260902191605 92 73 0.0 3.0 0.00 0.00 0.00 59 1015.6
20260902190059 93 126 0.0 5.0 0.00 0.00 0.00 57 1015.8
20260902184546 93 21 0.0 4.0 0.00 0.00 0.00 58 1016.0
20260902183048 92 88 0.0 1.0 0.00 0.00 0.00 61 1016.2
20260902181554 92 112 0.0 3.0 0.00 0.00 0.00 58 1016.2
20260902180105 92 137 0.0 3.0 0.00 0.00 0.00 60 1016.3
20260902174547 92 265 0.0 2.0 0.00 0.00 0.00 60 1016.5
20260902173046 92 304 0.0 2.0 0.00 0.00 0.00 61 1016.7
20260902171544 93 119 0.0 3.0 0.00 0.00 0.00 60 1017.0
20260902170044 92 153 0.0 3.0 0.00 0.00 0.00 64 1017.1
20260902164524 91 234 0.0 4.0 0.00 0.00 0.00 66 1017.3
20260902163027 90 84 0.0 4.0 0.00 0.00 0.00 65 1017.4
20260902161508 89 20 0.0 4.0 0.00 0.00 0.00 67 1017.6
20260902160009 89 99 1.0 5.0 0.00 0.00 0.00 69 1017.7
20260902154549 88 351 0.0 3.0 0.00 0.00 0.00 75 1017.9
20260902153049 86 302 0.0 1.0 0.00 0.00 0.00 77 1017.9
20260902151550 85 106 0.0 3.0 0.00 0.00 0.00 81 1017.9
20260902150047 84 106 0.0 1.0 0.00 0.00 0.00 84 1017.8
20260902144559 82 106 0.0 2.0 0.00 0.00 0.00 86 1017.7
20260902143046 81 106 0.0 0.0 0.00 0.00 0.00 88 1017.6
20260902141547 79 106 0.0 1.0 0.00 0.00 0.00 89 1017.6
20260902140051 78 106 0.0 0.0 0.00 0.00 0.00 91 1017.6
20260902134549 77 106 0.0 0.0 0.00 0.00 0.00 93 1017.7
20260902133048 76 106 0.0 0.0 0.00 0.00 0.00 94 1017.6
20260902131545 75 106 0.0 0.0 0.00 0.00 0.00 94 1017.6
20260902130045 74 106 0.0 0.0 0.00 0.00 0.00 94 1017.6
20260902124544 74 106 0.0 0.0 0.00 0.00 0.00 94 1017.5
20260902123046 73 106 0.0 0.0 0.00 0.00 0.00 94 1017.5
20260902121522 73 106 0.0 0.0 0.00 0.00 0.00 94 1017.4
20260902120021 73 106 0.0 0.0 0.00 0.00 0.00 93 1017.4
20260902114502 73 106 0.0 0.0 0.00 0.00 0.00 93 1017.2
20260902113100 73 106 0.0 0.0 0.00 0.00 0.00 93 1017.1
20260902111545 73 106 0.0 0.0 0.00 0.00 0.00 93 1016.9
20260902110040 73 106 0.0 0.0 0.00 0.00 0.00 93 1016.8
20260902104535 73 106 0.0 0.0 0.00 0.00 0.00 92 1016.7
20260902103020 73 106 0.0 0.0 0.00 0.00 0.00 92 1016.6
20260902101506 73 106 0.0 0.0 0.00 0.00 0.00 92 1016.5
20260902100001 73 106 0.0 0.0 0.00 0.00 0.00 92 1016.4
20260902094542 74 106 0.0 0.0 0.00 0.00 0.00 92 1016.2
20260902093041 74 106 0.0 0.0 0.00 0.00 0.00 92 1016.1
20260902091525 74 106 0.0 0.0 0.00 0.00 0.00 91 1016.0